Kansas Department of Transportation
RWIS(Road and Runway Information System) Map and Weather Data





Station
Surface
Air
Wind
Site IDSensor TypeLocationTemperature (°F)Temperature (°F)Humidity (%)Speed (mi/h)Gusts (mi/h)DirectionTime
123002AtmosphericBonner Springs 685159SOct 19 2017 11:05AM
123002ApproachBonner Springs82     Oct 19 2017 11:05AM
123002DeckBonner Springs82     Oct 19 2017 11:05AM
123014AtmosphericBull Creek 7041610SOct 19 2017 11:05AM
123014DeckBull Creek81     Oct 19 2017 11:05AM
123014DepartureBull Creek82     Oct 19 2017 11:05AM
123015AtmosphericLeavenworth 6661510WSWOct 19 2017 11:05AM
123015DeckLeavenworth75     Oct 19 2017 11:05AM
123015DepartureLeavenworth      Oct 19 2017 11:05AM
123020AtmosphericMayetta 645379SWOct 19 2017 11:05AM
123020RoadwayMayetta84     Oct 19 2017 11:05AM
123020DeckMayetta84     Oct 19 2017 11:05AM
505000AtmosphericKTA 1 665227SOct 19 2017 10:50AM
505000ApproachKTA 173     Oct 19 2017 11:00AM
505000DeckKTA 177     Oct 19 2017 11:00AM
505001AtmosphericKTA 2 6851710SOct 19 2017 10:50AM
505001ApproachKTA 279     Oct 19 2017 11:00AM
505001DeckKTA 279     Oct 19 2017 11:00AM
505002AtmosphericKTA 3 615647SOct 19 2017 10:50AM
505002ApproachKTA 381     Oct 19 2017 11:00AM
505002DeckKTA 377     Oct 19 2017 11:00AM
505003AtmosphericKTA 4 6645712NOct 19 2017 10:50AM
505003ApproachKTA 481     Oct 19 2017 11:00AM
505003DeckKTA 479     Oct 19 2017 11:00AM
505004AtmosphericKTA 5 7099711SWOct 19 2017 10:50AM
505004RoadwayKTA 5Unavailable     Oct 19 2017 11:00AM
505004RoadwayKTA 5Unavailable     Oct 19 2017 11:00AM
505005AtmosphericKTA 6 664847SOct 19 2017 10:50AM
505005Approach KTA 681     Oct 19 2017 11:00AM
505005DeckKTA 675     Oct 19 2017 11:00AM
505006AtmosphericKTA 7 685826WSWOct 19 2017 10:50AM
505006ApproachKTA 7Unavailable     Oct 19 2017 11:00AM
505006DeckKTA 779     Oct 19 2017 11:00AM
505007AtmosphericKTA 8 666346SWOct 19 2017 10:50AM
505007ApproachKTA 881     Oct 19 2017 11:00AM
505007DeckKTA 875     Oct 19 2017 11:00AM
505008AtmosphericKTA 9 681026SWOct 19 2017 10:50AM
505008ApproachKTA 979     Oct 19 2017 11:00AM
505008DeckKTA 973     Oct 19 2017 11:00AM
505009AtmosphericKTA 10 733127SOct 19 2017 10:50AM
505009ApproachKTA 1079     Oct 19 2017 11:00AM
505009DeckKTA 1073     Oct 19 2017 11:00AM
505010AtmosphericWebb 684258SEOct 19 2017 11:05AM
505010DeckWebb      Oct 19 2017 11:05AM
505010NullWebb      Oct 19 2017 11:05AM
505014AtmosphericI-135 6653612SSWOct 19 2017 11:05AM
505014ApproachI-13577     Oct 19 2017 11:00AM
505014DeckI-135      Oct 19 2017 11:05AM
540000AtmosphericBlue Rapids 665457SWOct 19 2017 11:05AM
540000DeckBlue Rapids73     Oct 19 2017 11:05AM
540000DepartureBlue Rapids75     Oct 19 2017 11:05AM
540001AtmosphericSabetha 646345SWOct 19 2017 11:05AM
540001ApproachSabetha79     Oct 19 2017 11:05AM
540001DeckSabetha      Oct 19 2017 11:05AM
540002AtmosphericWestgate 684146SSWOct 19 2017 11:05AM
540002DeckWestgate81     Oct 19 2017 11:05AM
540002DepartureWestgate82     Oct 19 2017 11:05AM
540003AtmosphericEmporia 685458SWOct 19 2017 11:05AM
540003ApproachEmporia82     Oct 19 2017 11:05AM
540003DeckEmporia77     Oct 19 2017 11:05AM
540005AtmosphericLawrence 685549SOct 19 2017 11:05AM
540005ApproachLawrence77     Oct 19 2017 11:05AM
540005DeckLawrence127     Oct 19 2017 11:05AM
540006AtmosphericTroy 667236SSEOct 19 2017 11:05AM
540006DeckTroy75     Oct 19 2017 11:05AM
540006DepartureTroy82     Oct 19 2017 11:05AM
540007AtmosphericManhattan 666211SSEOct 19 2017 11:05AM
540007DepartureManhattan75     Oct 19 2017 11:05AM
540007DeckManhattan79     Oct 19 2017 11:05AM
541001AtmosphericSyracuse 555424NWOct 19 2017 11:05AM
541001Out of Service for WinterSyracuse70     Oct 19 2017 11:05AM
541001DeckSyracuse66     Oct 19 2017 11:05AM
541002AtmosphericLiberal 635547SSEOct 19 2017 11:05AM
541002ApproachLiberalUnavailable     Oct 19 2017 11:05AM
541002DeckLiberalUnavailable     Oct 19 2017 11:05AM
541003AtmosphericFord 664458SSEOct 19 2017 11:05AM
541003DeckFord73     Oct 19 2017 11:05AM
541003DepartureFord79     Oct 19 2017 11:05AM
541004AtmosphericScott 661133SEOct 19 2017 11:05AM
541004DepartureScott81     Oct 19 2017 11:05AM
541005AtmosphericNess 683800SSEOct 19 2017 11:05AM
541005DeckNess73     Oct 19 2017 11:05AM
541005DepartureNess79     Oct 19 2017 11:05AM
541007AtmosphericGarden City 646047SSEOct 19 2017 11:05AM
541007ApproachGarden City66     Oct 19 2017 11:05AM
541007DeckGarden CityUnavailable     Oct 19 2017 11:05AM
543000AtmosphericJunction City 724324NNEOct 19 2017 11:05AM
543000ApproachJunction City82     Oct 19 2017 11:05AM
543000DeckJunction City79     Oct 19 2017 11:05AM
543001AtmosphericEllsworth 664268NNWOct 19 2017 11:05AM
543001RoadwayEllsworth86     Oct 19 2017 11:05AM
543002AtmosphericMcPherson 66551012SSWOct 19 2017 11:05AM
543002ApproachMcPherson75     Oct 19 2017 11:05AM
543003AtmosphericSalina 663947NOct 19 2017 11:05AM
543003DepartureSalina77     Oct 19 2017 11:05AM
543003RoadwaySalina75     Oct 19 2017 11:05AM
543004AtmosphericConcordia 617048SOct 19 2017 11:05AM
543004ApproachConcordiaUnavailable     Oct 19 2017 11:05AM
543004DeckConcordia68     Oct 19 2017 11:05AM
543005AtmosphericPeabody 5450610WOct 19 2017 11:05AM
543005ApproachPeabody82     Oct 19 2017 11:05AM
543005DeckPeabodyUnavailable     Oct 19 2017 11:05AM
560000AtmosphericEdson 704247SOct 19 2017 11:05AM
560000RoadwayEdson75     Oct 19 2017 11:05AM
560000RoadwayEdson73     Oct 19 2017 11:05AM
560001AtmosphericOakley 645146SEOct 19 2017 11:05AM
560001ApproachOakley75     Oct 19 2017 11:05AM
560001DeckOakley77     Oct 19 2017 11:05AM
560002AtmosphericAtwood 644814SWOct 19 2017 11:05AM
560002ApproachAtwood63     Oct 19 2017 11:05AM
560002DeckAtwood68     Oct 19 2017 11:05AM
560003AtmosphericJennings 684401EOct 19 2017 11:05AM
560003ApproachJennings72     Oct 19 2017 11:05AM
560003DeckJennings54     Oct 19 2017 11:05AM
560003DeckJennings54     Oct 19 2017 11:05AM
560004AtmosphericWakeeney 664434SOct 19 2017 11:05AM
560004ApproachWakeeney79     Oct 19 2017 11:05AM
560004DeckWakeeney77     Oct 19 2017 11:05AM
560005AtmosphericWalker 645026SWOct 19 2017 11:05AM
560005ApproachWalker79     Oct 19 2017 11:05AM
560005DeckWalker81     Oct 19 2017 11:05AM
560006AtmosphericBow Creek(Stockton) 634402SWOct 19 2017 11:05AM
560006ApproachBow Creek(Stockton)77     Oct 19 2017 11:05AM
560006DeckBow Creek(Stockton)72     Oct 19 2017 11:05AM
560007AtmosphericLebanon 645813SSWOct 19 2017 11:05AM
560007ApproachLebanonUnavailable     Oct 19 2017 11:05AM
560007DeckLebanonUnavailable     Oct 19 2017 11:05AM
560008AtmosphericWallace 641701NEOct 19 2017 11:05AM
560008ApproachWallace79     Oct 19 2017 11:05AM
560008DeckWallace73     Oct 19 2017 11:05AM
572000AtmosphericGreat Bend 685157SWOct 19 2017 11:05AM
572000ApproachGreat Bend84     Oct 19 2017 11:05AM
572000DeckGreat Bend79     Oct 19 2017 11:05AM
572001AtmosphericPratt 661406SEOct 19 2017 11:05AM
572001ApproachPratt81     Oct 19 2017 11:05AM
572001DeckPratt79     Oct 19 2017 11:05AM
572002AtmosphericAnthony 665236SSWOct 19 2017 11:05AM
572002ApproachAnthony82     Oct 19 2017 11:05AM
572002DeckAnthony79     Oct 19 2017 11:05AM
573000AtmosphericEureka 7246912SOct 19 2017 11:05AM
573000DeckEurekaUnavailable     Oct 19 2017 11:05AM
573000DepartureEureka77     Oct 19 2017 11:05AM
573001AtmosphericGarnett 685158SOct 19 2017 11:05AM
573001ApproachGarnett82     Oct 19 2017 11:05AM
573001DeckGarnett79     Oct 19 2017 11:05AM
573002AtmosphericCaney 6843611ESEOct 19 2017 11:05AM
573002RoadwayCaney81     Oct 19 2017 11:05AM
573003AtmosphericChetopa 706028SEOct 19 2017 11:05AM
573003DeckChetopa79     Oct 19 2017 11:05AM
573003DeckChetopa79     Oct 19 2017 11:05AM
573003DepartureChetopa84     Oct 19 2017 11:05AM
573004AtmosphericChanute 704949SOct 19 2017 11:05AM
573004ApproachChanute84     Oct 19 2017 11:05AM
573004DeckChanute79     Oct 19 2017 11:05AM